Location: Hopville
(44.8032°N, 123.1329°W)
Time: 03:44:48
(UTC+00:00)

Cosmos 1513 Rocket - Pass Details

Date: 24 January 2021
Orbit: 939 x 1009 km, 82.9° (Epoch: 26 February)

Event Time Altitude Azimuth Distance (km) Brightness Sun altitude
Rises 13:02:03 0° 187° (S) 3,697 7.5 -27.8°
Reaches altitude 10° 13:04:34 10° 187° (S) 2,743 6.8 -27.4°
Maximum altitude 13:10:53 87° 276° (W) 985 4.4 -26.3°
Drops below altitude 10° 13:17:07 10° 8° (N) 2,713 6.9 -25.2°
Sets 13:19:37 0° 9° (N) 3,654 7.6 -24.7°
